map of ISU home
ISU - Airport
Location
City:  Sulaimaniyah, Iraq
Near (Alt.):Sulaymaniyah, Silêmani
Name:Sulaimaniyah International Airport
ICAO:ORSU
IATA:ISU

Details
Type:Airport (Aerodrome, Airfield)
Use:Public/Civil, Military, International (customs port of entry)
Latitude:35°33'39"N (35.560800)
Longitude:45°18'53"E (45.314717)
Elevation:2492 ft (760 m)
Variation:5.04°E (WMM2015 magnetic declination)
0.07° annual change
Runways:1
Longest:11483 × 148 ft (3500 × 45 m)

Time
Time Zone:UTC+3 (DST+4)

Weather
METAR:ORSU 170400Z 31005KT CAVOK M01/M01 Q1027
TAF:ORSU 161700Z 1618/1718 VRB03KT CAVOK
TEMPO 1706/1714 13005KT 9999 FEW045 SCT100
BECMG 1714/1716 31006KT

Related Locations
Nearby:
Farthest:GMR: 11570 mi / 18621 km
Mangareva [Totegegie], Gambier Islands, PF

Find:

   beyond  
but within

Other Information
Maps:
NOTAMs:
Links:
Sources:

  
flag of Iraq   

Sectional Chart

Flight Planning
at skyvector.com

Satellite Image

Google Maps Satellite view

 

Copyright © 2004-2017 Karl L. Swartz. All rights reserved.
The Great Circle Mapper name and logo are trademarks of the Great Circle Mapper.
All other trademarks mentioned herein belong to their respective owners.
Please see credits for attibutions and further copyright information.

  Follow gcmap on Facebook Follow gcmap on Twitter Follow gcmap on Google+ GCmap on LinkedIn

hCard Microformat

Geo Microformat